User: anonymous   Login
Location: Mentone
(34.5413°N, 85.5351°W)
Time: 08:04:18
(UTC-06:00)
Language:

Centaur AC-72 - Orbit

View from above orbital plane
View from above orbital plane
View from above satellite
View from above satellite

Ground track
Ground track

The orbit data is extracted from the following two-line orbital elements,

1 21907U 92013B   16341.81840980 -.00000068  00000-0  00000+0 0  9991
2 21907  19.5359 331.0992 6948361  39.4644  21.7675  2.25604817203937
Epoch (UTC): 06 December 2016 19:38:30
Eccentricity: 0.6948361
inclination: 19.5359°
perigee height: 1115 km
apogee height: 35241 km
right ascension of ascending node: 331.0992°
argument of perigee: 39.4644°
revolutions per day: 2.25604817
mean anomaly at epoch: 21.7675°
orbit number at epoch: 20393

The dashed part of the orbit path shows where the satellite is in the earth's shadow,  

DLR